Regional Weather Roundup
Issued by NWS

Home | Current Version | Previous Version | Graphics & Text | Print | Product List | Glossary On
Versions: 1 2 3 4 5 6 7 8 9 10 11 12 13 14 15 16 17 18 19 20 21 22 23 24 25 26 27 28 29 30 31 32 33 34 35 36 37 38 39 40 41 42 43 44 45 46 47 48 49 50
000
ASUS43 KLOT 251600
RWRIL

ILLINOIS REGIONAL WEATHER ROUNDUP
NATIONAL WEATHER SERVICE CHICAGO/ROMEOVILLE IL
1000 AM CST THU DEC 25 2014

NOTE: "FAIR" INDICATES FEW OR NO CLOUDS BELOW 12,000 FEET WITH NO
SIGNIFICANT WEATHER AND/OR OBSTRUCTIONS TO VISIBILITY.

* THESE STATIONS ARE NOT UNDER NWS QUALITY CONTROL. THEY ALSO MAY NOT
  REPORT WEATHER SUCH AS PRECIPITATION OR FOG.

ILZ001-002-007-009-015-016-024-251700-
NORTHWEST ILLINOIS

CITY           SKY/WX    TMP DP  RH WIND       PRES   REMARKS
MOLINE         SUNNY     37  30  75 S14       29.90R WCI  28
STERLING*      PTSUNNY   37  28  70 W3        29.93R
$$

ILZ003-004-008-010-011-017-018-251700-
NORTH CENTRAL ILLINOIS

CITY           SKY/WX    TMP DP  RH WIND       PRES   REMARKS
ROCKFORD       CLOUDY    35  27  72 SW13      29.95R WCI  26
$$

ILZ005-006-012>014-019>023-251700-
NORTHEAST ILLINOIS

CITY           SKY/WX    TMP DP  RH WIND       PRES   REMARKS
CHICAGO-OHARE  CLOUDY    35  27  72 SW14G26   29.95R WCI  26
CHICAGO-MIDWAY CLOUDY    37  29  72 SW17G24   29.97R WCI  27
AURORA         CLOUDY    36  28  73 SW14      29.97R WCI  27
WAUKEGAN       CLOUDY    34  27  75 SW13G26   29.92R WCI  25
DUPAGE AIRPORT CLOUDY    35  28  75 SW15      29.95R WCI  25
WHEELING       CLOUDY    35  27  72 SW13G22   29.96R WCI  26
NORTHERLY ISL    N/A     36  28  73 S9          N/A  WCI  29
$$

LMZ740>746-251700-
SOUTHERN LAKE MICHIGAN

STATION/POSITION SKY/WX   TEMP    WIND        PRES    VSBY  WAVE
                          AIR SEA DIR/SP/G                  HT/PER
                          (F)     (DEG/KT/KT) (MB)    (MI)  (FT/S)
WAUKEGAN HARBOR            34                   N/A
HARRISON CRIB              35     230/ 18/ 26   N/A
BURNHAM HARBOR             36     190/  7/ 14   N/A
CALUMET HARBOR             35     220/  7/ 14 1013.3R
MICHIGAN CITY              35     200/ 18/ 20   N/A
$$

ILZ025>027-034>036-040-047-049-050-058-095>099-251700-
WEST-CENTRAL ILLINOIS

CITY           SKY/WX    TMP DP  RH WIND       PRES   REMARKS
QUINCY         MOSUNNY   38  31  76 S12       29.94R WCI  30
MACOMB*        MOSUNNY   37  32  82 S14G23    29.97R WCI  29
$$

ILZ028>032-037-038-041>044-048-051>054-059>061-251700-
CENTRAL ILLINOIS

CITY           SKY/WX    TMP DP  RH WIND       PRES   REMARKS
DECATUR        SUNNY     40  33  76 S16       30.04R
PEORIA         SUNNY     40  31  70 S16G22    29.98R
LINCOLN*       SUNNY     40  32  73 S12G20    30.01R
SPRINGFIELD    SUNNY     41  33  73 S18G28    30.01R
TAYLORVILLE    NOT AVBL
$$

ILZ033-039-045-046-055>057-062-063-251700-
EAST-CENTRAL ILLINOIS

CITY           SKY/WX    TMP DP  RH WIND       PRES   REMARKS
CHAMPAIGN      PTSUNNY   38  31  76 SW18G28   30.04R WCI  28
DANVILLE*      CLOUDY    36  32  84 SW14      30.02R WCI  27
MATTOON        PTSUNNY   37  30  75 SW9G21    30.06R WCI  30
$$

ILZ079-100>102-251700-
SOUTHWEST ILLINOIS

CITY           SKY/WX    TMP DP  RH WIND       PRES   REMARKS
CAHOKIA*       SUNNY     41  33  73 S10       30.06R
SPARTA*        SUNNY     40  32  75 S10       30.09R
$$

ILZ064>066-069>071-074>076-080>082-084>086-088>090-092>094-251700-
SOUTH-CENTRAL ILLINOIS

CITY           SKY/WX    TMP DP  RH WIND       PRES   REMARKS
CARBONDALE     SUNNY     42  32  67 SW14      30.13R
MARION         SUNNY     43  36  75 S12       30.13R
MT. VERNON     SUNNY     43  34  70 SW15      30.12R
SALEM*         SUNNY     42  34  72 S14       30.09R
$$

ILZ067-068-072-073-078-083-087-091-251700-
SOUTHEAST ILLINOIS

CITY           SKY/WX    TMP DP  RH WIND       PRES   REMARKS
LAWRENCEVILLE  CLOUDY    40  32  73 SW15      30.13R
CARMI*         SUNNY     44  37  76 S12       30.14R
$$

ABBREVIATIONS USED IN REMARKS
   TC - TEMPERATURE IN CELSIUS
  WCI - WIND CHILL INDEX
   HX - HEAT INDEX
  VSB - VISIBILITY
$$




USA.gov is the U.S. government's official web portal to all federal, state and local government web resources and services.